User: anonymous   Login
Location: Unspecified
(0.0000°N, 0.0000°E)
Time: 05:56:12
(UTC+00:00)
Language:

EXOCUBE - Orbit

View from above orbital plane
View from above orbital plane
View from above satellite
View from above satellite

Ground track
Ground track

The orbit data is extracted from the following two-line orbital elements,

1 40380U 15003E   19083.82643294  .00001692  00000-0  79184-4 0  9994
2 40380  99.1056  38.2659 0141809  43.6831 317.5516 15.13230612228383
Epoch (UTC): 24 March 2019 19:50:03
Eccentricity: 0.0141809
inclination: 99.1056°
perigee height: 428 km
apogee height: 624 km
right ascension of ascending node: 38.2659°
argument of perigee: 43.6831°
revolutions per day: 15.13230612
mean anomaly at epoch: 317.5516°
orbit number at epoch: 22838

The dashed part of the orbit path shows where the satellite is in the earth's shadow,  

DLR